SBIRS GEO-4 (USA 273)

Last updated on Mon Oct 14 2024 00:02:40 GMT+0000 (Coordinated Universal Time)

1 41937U 17004A 24287.45885481 -.00000144 00000+0 00000+0 0 9990 2 41937 1.4336 8.9116 0002100 197.1055 244.9029 1.00271113 28476
UTC large
Height (km)
Speed (km/s)
/
Latitude / Longitude
Inclination (degrees)
Orbital Period (minutes)
Azimuth
Elevation
Range (km)
Doppler Factor

Next 0 passes for location: London (51.5072 / 0.1276)

Sorry there are no passes over London.